CZ-6A DEB, 54415

Orbit data source: Space-Track

CZ-6A DEB, 54415 is space debris in SSO originally from a launch on Fri, 11 Nov 2022 UTC launched from the Taiyaun Space Center, China (TSC). Debris objects in space refer to the collection of defunct objects orbiting the Earth. Examples of debris include non-operational satellites, rocket bodies, and fragments generated from explosions, collisions, or faulty payload assembly.

Loading next visibility...
Identifier
54415, 2022-151EP
Orbit
SSO
Country
Flag of CNCN / PRC
Related business
Manufacturer
SAST
Mission
Spacecraft
Bus & Motor
Unknown
Mass
Unknown
Launch date (UTC)
2022-11-11 (4 years ago)
Launch vehicle
Unknown
Launch site
Taiyaun Space Center, China (TSC)
Object type
Payload
Rocket body
Debris
Shape & HBR
Unknown shape, 0.4 m
Radar Cross Section
Medium (>0.1 m² and <1 m²)

Expand to show TLE details & history
Last TLE update: 2 days ago

TLE from 2 days ago
0 CZ-6A DEB
1 54415U 22151EP  26171.34364227  .00000230  00000-0  21397-3 0  9998
2 54415  99.0095  97.6720 0350969 192.0343 167.2254 13.66358492179267
Epoch: 2026-06-20T08:14Z
TLE epoch observation values (Epoch: 2026-06-20T08:14:50.692Z)
Latitude
Longitude
65.40116°
Altitude
1,268.952 km
Speed
7.096 km/s
True Right ascension
06h 30m 41s
True Declination
0° 00' 00"
Sunlit
Object was in daylight at epoch
Visualization orbit readout
Latitude
Unknown
Longitude
Unknown
Altitude
Unknown
Speed
Unknown
Apparent Right ascension
Unknown
Apparent Declination
Unknown
Sunlit
N/A
Visualization observer readout
Local Sidereal Time
21:58:20
Azimuth
Unknown
Elevation
Unknown
Doppler factor
Unknown
Orbital elements
Apogee altitude
1,269.211 km
Perigee altitude
750.616 km
Semi-major axis
7,388.05 km
Eccentricity
0.0351
Inclination
99.0095°
RAAN
97.672°
Arg. of periapsis
192.0343°
True anomaly
168.07811°
Mean anomaly
167.2254°
Eccentric anomaly
167.65532°
Mean motion
3.41781 °/min
Orbital period
105.33 mins
BSTAR
0.00021397
Loading maneuver chart data...
Computing Atmospheric mass density...
Loading historical data...
Loading historical data...
Loading historical data...
Loading historical data...
Loading historical data...
Loading historical data...
Loading historical data...

Documentation

Showing up to 5 results
|